1409968228593,0.000179603
1409968288593,0.000179769
1409968348593,0.000179758
1409968408593,0.000177829
1409968468593,0.000179195
1409968528593,0.000178312
1409968588593,0.000180326
1409968648593,0.000180663
1409968708593,0.000179118
1409968768593,0.000178039
1409968828593,0.000178500
1409968888593,0.000178763
1409968948593,0.000179224
1409969008593,0.000179094
1409969068593,0.000180450
1409969128593,0.000178752
1409969188593,0.000179424
1409969248593,0.000180079
1409969308593,0.000178424
1409969368593,0.000179887
1409969428593,0.000178028
1409969488593,0.000177858
1409969548593,0.000179659
1409969608593,0.000178688
1409969668593,0.000177227
1409969728593,0.000177370
1409969788593,0.000178390
1409969848593,0.000175204
1409969908593,0.000179485
1409969968593,0.000177686
1409970028593,0.000178999
1409970088593,0.000178608
1409970148593,0.000179197
1409970208593,0.000178745
1409970268593,0.000179087
1409970328593,0.000181150
1409970388593,0.000180492
1409970448593,0.000179972
1409970508593,0.000179875
1409970568593,0.000177921
1409970628593,0.000179554
1409970688593,0.000177997
1409970748593,0.000178212
1409970808593,0.000177980
1409970868593,0.000178577
1409970928593,0.000181423
1409970988593,0.000180237
1409971048593,0.000181289
1409971108593,0.000179505
1409971168593,0.000179324
1409971228593,0.000177581
1409971288593,0.000179996
1409971348593,0.000179897
1409971408593,0.000179653
1409971468593,0.000180423
1409971528593,0.000179781
1409971588593,0.000178868
1409971648593,0.000179344
1409971708593,0.000180794
1409971768593,0.000180336
1409971828593,0.000180707
1409971888593,0.000180669
1409971948593,0.000181346
1409972008593,0.000180411
1409972068593,0.000180393
1409972128593,0.000179785
1409972188593,0.000181141
1409972248593,0.000181003
1409972308593,0.000180292
1409972368593,0.000180934
1409972428594,0.000181962
1409972488594,0.000180733
1409972548594,0.000181009
1409972608594,0.000181830
1409972668594,0.000180385
1409972728594,0.000180556
1409972788594,0.000181244
1409972848594,0.000181837
1409972908594,0.000180622
1409972968594,0.000181336
1409973028594,0.000181974
1409973088594,0.000180616
1409973148594,0.000180004
1409973208594,0.000179998
1409973268594,0.000183590
1409973328594,0.000181047
1409973388594,0.000180693
1409973448594,0.000180613
1409973508594,0.000181674
1409973568594,0.000183740
1409973628594,0.000183643
1409973688594,0.000182310
1409973748594,0.000182522
1409973808594,0.000183259
1409973868594,0.000183589
1409973928594,0.000181833
1409973988594,0.000180482
1409974048594,0.000182126
1409974108594,0.000182314
1409974168594,0.000181420
1409974228594,0.000182738
1409974288594,0.000181167
1409974348594,0.000184064
1409974408594,0.000181870
1409974468594,0.000182212
1409974528594,0.000183617
1409974588594,0.000183960
1409974648594,0.000182943
1409974708594,0.000182031
1409974768594,0.000181521
1409974828594,0.000181997
1409974888594,0.000183172
1409974948594,0.000182942
1409975008594,0.000184487
1409975068594,0.000182929
1409975128594,0.000183048
1409975188594,0.000183746
1409975248594,0.000182993
1409975308594,0.000181102
1409975368594,0.000181602
1409975428594,0.000181370
1409975488594,0.000179290
1409975548594,0.000184439
1409975608594,0.000184432
1409975668594,0.000181156
1409975728594,0.000183686
1409975788594,0.000182456
1409975848594,0.000183388
1409975908594,0.000181133
1409975968594,0.000180831
1409976028596,0.000181194
1409976088596,0.000184232
1409976148596,0.000183358
1409976208596,0.000183771
1409976268596,0.000182663
1409976328596,0.000181628
1409976388596,0.000185148
1409976448596,0.000181608
1409976508596,0.000184761
1409976568596,0.000182265
1409976628596,0.000180379
1409976688596,0.000183352
1409976748596,0.000181301
1409976808596,0.000182594
1409976868596,0.000183519
1409976928596,0.000181887
1409976988596,0.000183768
1409977048596,0.000183396
1409977108596,0.000183515
1409977168596,0.000183797
1409977228596,0.000182823
1409977288596,0.000181564
1409977348596,0.000180659
1409977408596,0.000183118
1409977468596,0.000182870
1409977528596,0.000182304
1409977588596,0.000181737
1409977648596,0.000183224
1409977708596,0.000183345
1409977768596,0.000184620
1409977828596,0.000183499
1409977888596,0.000182338
1409977948596,0.000184331
1409978008596,0.000182110
1409978068596,0.000184050
1409978128596,0.000181299
1409978188596,0.000181646
1409978248596,0.000182481
1409978308596,0.000183013
1409978368596,0.000182501
1409978428596,0.000181592
1409978488596,0.000184315
1409978548596,0.000182519
1409978608596,0.000181899
1409978668596,0.000182992
1409978728596,0.000181435
1409978788596,0.000180736
1409978848596,0.000179844
1409978908596,0.000181151
1409978968596,0.000182188
1409979028596,0.000180468
1409979088596,0.000182395
1409979148596,0.000184839
1409979208596,0.000181942
1409979268596,0.000182406
